Sturgeon Bay, WI

12:22 PM CST on November 24, 2017 (GMT -0600)
Door County Cherryland

Weather History for KSUE - October, 2011

Change the Weather History Date:

Monday, October 31, 2011

  Actual Average Record
Temperature  
Mean Temperature 42 °F -  
Max Temperature 46 °F 51 °F 72 °F (1950)
Min Temperature 39 °F 37 °F 21 °F (1905)
Degree Days  
Heating Degree Days 22    
Moisture  
Dew Point 38 °F    
Average Humidity 81    
Maximum Humidity 93    
Minimum Humidity 62    
Precipitation  
Precipitation 0.01 in - - ()
Sea Level Pressure  
Sea Level Pressure 30.00 in    
Wind  
Wind Speed 7 mph (SW)    
Max Wind Speed 12 mph    
Max Gust Speed 17 mph    
Visibility 7 miles    
Events      
Averages and records for this station are not official NWS values.
T = Trace of Precipitation, MM = Missing Value Source: NWS Daily Summary

Daily Weather History Graph

Daily Weather History Graph

Search for Another Location

Airport or City:

Trip Planner

Search our weather history database for the weather conditions in past years. The results will help you decide how hot, cold, wet, or windy it might be!

Date:

Astronomy

Oct. 31, 2011 Rise Set
Actual Time 7:26 AM CDT 5:39 PM CDT
Civil Twilight 6:55 AM CDT 6:10 PM CDT
Nautical Twilight 6:21 AM CDT 6:44 PM CDT
Astronomical Twilight 5:47 AM CDT 7:18 PM CDT
Moon 12:38 PM CDT (10/31) 10:10 PM CDT (10/31)
Length of Visible Light 11h 14m
Length of Day
10h 13m
Waxing Crescent, 30% of the Moon is Illuminated
Oct 31
Waxing Crescent
Nov 2
First Quarter
Nov 10
Full
Nov 18
Last Quarter
Nov 25
New

Hourly Weather History & Observations

Time (CDT) Temp. Windchill Dew Point Humidity Pressure Visibility Wind Dir Wind Speed Gust Speed Precip Events Conditions
12:15 AM 44.6 °F 40.2 °F 42.8 °F 93% 29.88 in 5.0 mi SSW 8.1 mph - N/A   Overcast
12:35 AM 44.6 °F 40.7 °F 42.8 °F 93% 29.89 in 5.0 mi SSW 6.9 mph - N/A   Overcast
12:55 AM 44.6 °F 41.4 °F 42.8 °F 93% 29.90 in 5.0 mi SW 5.8 mph - N/A   Overcast
1:15 AM 44.6 °F 42.2 °F 42.8 °F 93% 29.90 in 5.0 mi SSW 4.6 mph - N/A   Overcast
1:35 AM 44.6 °F 41.4 °F 42.8 °F 93% 29.91 in 4.0 mi SSW 5.8 mph - N/A   Overcast
1:55 AM 44.6 °F 41.4 °F 42.8 °F 93% 29.91 in 3.0 mi SSW 5.8 mph - N/A   Overcast
2:15 AM 44.6 °F 41.4 °F 41.0 °F 87% 29.92 in 4.0 mi SW 5.8 mph - N/A   Overcast
2:35 AM 42.8 °F 40.1 °F 39.2 °F 87% 29.92 in 3.0 mi SW 4.6 mph - N/A   Mostly Cloudy
2:55 AM 42.8 °F 40.1 °F 39.2 °F 87% 29.92 in 4.0 mi WSW 4.6 mph - N/A   Scattered Clouds
3:15 AM 42.8 °F 41.1 °F 39.2 °F 87% 29.92 in 3.0 mi SW 3.5 mph - N/A   Partly Cloudy
3:35 AM 41.0 °F 38.0 °F 39.2 °F 93% 29.93 in 2.5 mi SSW 4.6 mph - N/A   Mostly Cloudy
3:55 AM 41.0 °F 39.0 °F 39.2 °F 93% 29.93 in 2.5 mi SW 3.5 mph - N/A   Overcast
4:15 AM 41.0 °F 38.0 °F 39.2 °F 93% 29.93 in 3.0 mi SSW 4.6 mph - N/A   Overcast
4:35 AM 41.0 °F 37.1 °F 39.2 °F 93% 29.93 in 3.0 mi SSW 5.8 mph - N/A   Overcast
4:55 AM 41.0 °F 37.1 °F 39.2 °F 93% 29.94 in 4.0 mi SSW 5.8 mph - N/A   Overcast
5:15 AM 41.0 °F 37.1 °F 39.2 °F 93% 29.95 in 5.0 mi SSW 5.8 mph - N/A   Overcast
6:15 AM 39.2 °F 34.2 °F 37.4 °F 93% 29.95 in 5.0 mi WSW 6.9 mph - N/A   Mostly Cloudy
6:55 AM 39.2 °F 35.9 °F 37.4 °F 93% 29.95 in 4.0 mi SSW 4.6 mph - N/A   Overcast
7:35 AM 39.2 °F 35.0 °F 37.4 °F 93% 29.96 in 2.5 mi South 5.8 mph - N/A   Mostly Cloudy
7:55 AM 39.2 °F 35.0 °F 37.4 °F 93% 29.97 in 2.0 mi SSW 5.8 mph - N/A   Overcast
8:15 AM 41.0 °F 39.0 °F 39.2 °F 93% 29.97 in 2.5 mi SSW 3.5 mph - N/A   Overcast
8:35 AM 41.0 °F 38.0 °F 39.2 °F 93% 29.97 in 3.0 mi South 4.6 mph - N/A   Overcast
9:35 AM 42.8 °F 38.6 °F 39.2 °F 87% 29.99 in 7.0 mi SSW 6.9 mph - N/A   Overcast
9:55 AM 42.8 °F 38.6 °F 39.2 °F 87% 30.00 in 5.0 mi South 6.9 mph - N/A   Mostly Cloudy
10:15 AM 42.8 °F 38.6 °F 37.4 °F 81% 30.00 in 8.0 mi SSW 6.9 mph - N/A   Mostly Cloudy
10:35 AM 42.8 °F 38.6 °F 39.2 °F 87% 30.00 in 8.0 mi SW 6.9 mph - N/A   Mostly Cloudy
10:55 AM 42.8 °F 38.0 °F 37.4 °F 81% 30.00 in 8.0 mi SSW 8.1 mph - N/A   Overcast
11:15 AM 42.8 °F 38.6 °F 37.4 °F 81% 30.01 in 8.0 mi SW 6.9 mph - N/A   Overcast
11:35 AM 44.6 °F 40.2 °F 37.4 °F 76% 30.01 in 10.0 mi SSW 8.1 mph - N/A   Overcast
12:15 PM 44.6 °F 39.7 °F 37.4 °F 76% 30.00 in 10.0 mi WSW 9.2 mph - N/A   Overcast
12:35 PM 44.6 °F 39.7 °F 35.6 °F 71% 29.99 in 10.0 mi SW 9.2 mph - N/A   Mostly Cloudy
12:55 PM 46.4 °F 41.1 °F 35.6 °F 66% 29.99 in 10.0 mi West 11.5 mph - N/A   Mostly Cloudy
1:35 PM 46.4 °F 41.5 °F 35.6 °F 66% 30.01 in 10.0 mi WSW 10.4 mph 17.3 mph N/A   Overcast
1:55 PM 46.4 °F 41.1 °F 35.6 °F 66% 30.01 in 10.0 mi WSW 11.5 mph - N/A   Overcast
2:15 PM 46.4 °F 41.1 °F 33.8 °F 62% 30.02 in 10.0 mi WSW 11.5 mph - N/A   Overcast
2:35 PM 46.4 °F 42.4 °F 35.6 °F 66% 30.02 in 10.0 mi WSW 8.1 mph - N/A   Overcast
2:55 PM 46.4 °F 41.9 °F 33.8 °F 62% 30.02 in 10.0 mi SW 9.2 mph - N/A   Overcast
3:15 PM 46.4 °F 41.9 °F 33.8 °F 62% 30.03 in 10.0 mi WSW 9.2 mph - N/A   Overcast
3:35 PM 46.4 °F 41.9 °F 35.6 °F 66% 30.02 in 10.0 mi WSW 9.2 mph - N/A   Overcast
3:55 PM 46.4 °F 41.5 °F 33.8 °F 62% 30.03 in 10.0 mi SW 10.4 mph - N/A   Overcast
4:15 PM 44.6 °F 40.7 °F 35.6 °F 71% 30.04 in 10.0 mi SW 6.9 mph - N/A   Overcast
4:55 PM 44.6 °F 41.4 °F 33.8 °F 66% 30.05 in 10.0 mi SW 5.8 mph - N/A   Overcast
5:15 PM 44.6 °F 40.2 °F 33.8 °F 66% 30.06 in 10.0 mi SW 8.1 mph - N/A   Overcast
5:35 PM 44.6 °F 40.2 °F 33.8 °F 66% 30.06 in 10.0 mi SW 8.1 mph - N/A   Overcast
5:55 PM 44.6 °F 40.7 °F 35.6 °F 71% 30.06 in 10.0 mi SW 6.9 mph - N/A   Overcast
6:15 PM 44.6 °F 41.4 °F 35.6 °F 71% 30.06 in 10.0 mi SSW 5.8 mph - N/A   Overcast
6:35 PM 44.6 °F 42.2 °F 35.6 °F 71% 30.07 in 10.0 mi SSW 4.6 mph - N/A   Overcast
6:55 PM 42.8 °F 38.6 °F 37.4 °F 81% 30.08 in 10.0 mi SSW 6.9 mph - N/A   Overcast
7:15 PM 42.8 °F 39.3 °F 37.4 °F 81% 30.08 in 10.0 mi SSW 5.8 mph - N/A   Overcast
7:35 PM 42.8 °F 38.6 °F 37.4 °F 81% 30.09 in 10.0 mi SSW 6.9 mph - N/A   Overcast
8:15 PM 42.8 °F 38.0 °F 37.4 °F 81% 30.09 in 10.0 mi SSW 8.1 mph - N/A   Overcast
8:35 PM 42.8 °F 38.0 °F 37.4 °F 81% 30.09 in 10.0 mi SSW 8.1 mph - N/A   Overcast
8:55 PM 42.8 °F 38.6 °F 37.4 °F 81% 30.10 in 10.0 mi SSW 6.9 mph - N/A   Overcast
9:15 PM 42.8 °F 38.6 °F 37.4 °F 81% 30.10 in 10.0 mi SSW 6.9 mph - N/A   Overcast
9:35 PM 42.8 °F 38.0 °F 37.4 °F 81% 30.10 in 10.0 mi South 8.1 mph - N/A   Overcast
9:55 PM 42.8 °F 38.6 °F 39.2 °F 87% 30.10 in 10.0 mi SSW 6.9 mph - N/A   Overcast
10:15 PM 42.8 °F 38.6 °F 37.4 °F 81% 30.10 in 10.0 mi South 6.9 mph - N/A   Overcast
10:35 PM 42.8 °F 38.6 °F 39.2 °F 87% 30.10 in 10.0 mi SSW 6.9 mph - N/A   Overcast
10:55 PM 42.8 °F 38.6 °F 39.2 °F 87% 30.10 in 10.0 mi SSW 6.9 mph - N/A   Overcast
11:15 PM 42.8 °F 39.3 °F 37.4 °F 81% 30.10 in 10.0 mi SSW 5.8 mph - N/A   Overcast
11:35 PM 42.8 °F 38.6 °F 37.4 °F 81% 30.10 in 10.0 mi SSW 6.9 mph - N/A   Overcast
11:55 PM 42.8 °F 38.6 °F 37.4 °F 81% 30.11 in 10.0 mi SSW 6.9 mph - N/A   Overcast